CW4588 Weather Reports


Display with metric or nautical units.
time (UTC)temp
F
wind
direction
speed
MPH
gust
MPH
rain 1hr
in
rain 24hr
in
rain mn
in
humidity
%
barometer
mb
20260510215036 43 250 0.0 0.0 0.00 0.00 0.00 57 1004.1
20260510214549 44 250 0.0 0.0 0.00 0.00 0.00 56 1004.2
20260510214104 44 250 0.0 0.0 0.00 0.00 0.00 56 1004.2
20260510213529 44 250 0.0 0.0 0.00 0.00 0.00 55 1004.2
20260510213028 44 250 0.0 0.0 0.00 0.00 0.00 55 1004.3
20260510212523 44 250 0.0 0.0 0.00 0.00 0.00 54 1004.3
20260510212026 44 250 0.0 0.0 0.00 0.00 0.00 53 1004.3
20260510211542 44 250 0.0 0.0 0.00 0.00 0.00 52 1004.3
20260510211027 44 250 0.0 0.0 0.00 0.00 0.00 52 1004.4
20260510210535 44 250 0.0 0.0 0.00 0.00 0.00 53 1004.4
20260510210032 45 250 0.0 0.0 0.00 0.00 0.00 53 1004.5
20260510205533 45 250 0.0 0.0 0.00 0.00 0.00 53 1004.5
20260510205051 45 250 0.0 0.0 0.00 0.00 0.00 54 1004.5
20260510204559 45 250 0.0 0.0 0.00 0.00 0.00 53 1004.5
20260510204024 46 250 0.0 0.0 0.00 0.00 0.00 50 1004.5
20260510203542 46 250 0.0 0.0 0.00 0.00 0.00 50 1004.5
20260510203050 46 250 0.0 0.0 0.00 0.00 0.00 48 1004.5
20260510202519 47 250 0.0 0.0 0.00 0.00 0.00 48 1004.5
20260510202035 47 250 0.0 0.0 0.00 0.00 0.00 47 1004.5
20260510201532 48 250 0.0 0.0 0.00 0.00 0.00 46 1004.5
20260510201036 48 250 0.0 0.0 0.00 0.00 0.00 45 1004.5
20260510200552 48 250 0.0 0.0 0.00 0.00 0.00 43 1004.5
20260510200040 49 250 0.0 0.0 0.00 0.00 0.00 42 1004.5
20260510195600 49 250 0.0 0.0 0.00 0.00 0.00 41 1004.6
20260510195028 49 250 0.0 0.0 0.00 0.00 0.00 41 1004.6
20260510194533 49 250 0.0 0.0 0.00 0.00 0.00 40 1004.6
20260510194047 50 250 0.0 0.0 0.00 0.00 0.00 39 1004.6
20260510193536 50 250 0.0 0.0 0.00 0.00 0.00 40 1004.6
20260510193032 50 250 1.0 0.0 0.00 0.00 0.00 41 1004.8
20260510192539 50 250 1.0 0.0 0.00 0.00 0.00 41 1004.8
20260510192026 51 250 0.0 0.0 0.00 0.00 0.00 43 1004.8
20260510191542 51 250 0.0 0.0 0.00 0.00 0.00 42 1004.8
20260510191050 51 250 0.0 0.0 0.00 0.00 0.00 41 1004.6
20260510190525 51 250 1.0 0.0 0.00 0.00 0.00 42 1004.6
20260510190031 51 250 1.0 0.0 0.00 0.00 0.00 43 1004.6
20260510185543 52 250 0.0 0.0 0.00 0.00 0.00 43 1004.6
20260510185027 52 250 0.0 0.0 0.00 0.00 0.00 44 1004.6
20260510184524 52 250 0.0 0.0 0.00 0.00 0.00 43 1004.6
20260510184030 53 250 0.0 0.0 0.00 0.00 0.00 44 1004.6
20260510183527 53 250 0.0 0.0 0.00 0.00 0.00 42 1004.6
20260510183031 53 250 0.0 0.0 0.00 0.00 0.00 41 1004.5
20260510182521 53 250 0.0 0.0 0.00 0.00 0.00 42 1004.5
20260510182100 54 250 0.0 0.0 0.00 0.00 0.00 42 1004.5
20260510181527 54 250 0.0 0.0 0.00 0.00 0.00 41 1004.5
20260510181034 54 250 0.0 0.0 0.00 0.00 0.00 40 1004.5
20260510180550 55 250 1.0 0.0 0.00 0.00 0.00 40 1004.5
20260510180032 55 250 1.0 0.0 0.00 0.00 0.00 39 1004.5
20260510175543 55 250 2.0 0.0 0.00 0.00 0.00 39 1004.5
20260510175052 56 250 3.0 0.0 0.00 0.00 0.00 38 1004.5
20260510174542 56 272 3.0 0.0 0.00 0.00 0.00 36 1004.5
20260510174029 56 271 3.0 0.0 0.00 0.00 0.00 35 1004.6
20260510173527 57 283 3.0 0.0 0.00 0.00 0.00 35 1004.6
20260510173035 57 264 3.0 0.0 0.00 0.00 0.00 37 1004.6
20260510172549 58 278 3.0 0.0 0.00 0.00 0.00 34 1004.6
20260510172034 58 282 2.0 0.0 0.00 0.00 0.00 36 1004.6
20260510171530 58 245 2.0 0.0 0.00 0.00 0.00 36 1004.5
20260510171110 58 230 3.0 0.0 0.00 0.00 0.00 33 1004.5
20260510170533 59 186 3.0 0.0 0.00 0.00 0.00 34 1004.5
20260510170038 59 162 3.0 0.0 0.00 0.00 0.00 32 1004.5
20260510165522 59 128 2.0 0.0 0.00 0.00 0.00 30 1004.6
20260510165041 59 137 3.0 0.0 0.00 0.00 0.00 31 1004.6
20260510164529 59 91 3.0 0.0 0.00 0.00 0.00 31 1004.9
20260510164038 60 130 4.0 0.0 0.00 0.00 0.00 30 1004.9
20260510163535 60 106 4.0 0.0 0.00 0.00 0.00 31 1004.9
20260510163039 60 96 4.0 0.0 0.00 0.00 0.00 28 1004.9
20260510162526 60 114 4.0 0.0 0.00 0.00 0.00 32 1005.0
20260510162041 60 131 4.0 0.0 0.00 0.00 0.00 28 1005.0
20260510161524 60 125 5.0 0.0 0.00 0.00 0.00 30 1005.2
20260510161027 61 146 6.0 0.0 0.00 0.00 0.00 29 1005.2
20260510160526 61 118 6.0 0.0 0.00 0.00 0.00 28 1005.2
20260510160031 61 89 4.0 0.0 0.00 0.00 0.00 27 1005.5
20260510155520 62 175 5.0 0.0 0.00 0.00 0.00 28 1005.5
20260510155027 62 134 6.0 0.0 0.00 0.00 0.00 27 1005.5
20260510154525 62 128 4.0 0.0 0.00 0.00 0.00 27 1005.5
20260510154031 62 134 4.0 0.0 0.00 0.00 0.00 27 1005.5
20260510153536 62 100 5.0 0.0 0.00 0.00 0.00 27 1005.5
20260510153051 62 128 5.0 0.0 0.00 0.00 0.00 27 1005.7
20260510152529 62 148 4.0 0.0 0.00 0.00 0.00 29 1005.7
20260510152039 61 156 4.0 0.0 0.00 0.00 0.00 26 1005.7
20260510151546 61 127 4.0 0.0 0.00 0.00 0.00 27 1006.1
20260510151037 61 91 3.0 0.0 0.00 0.00 0.00 28 1006.1
20260510150521 61 86 3.0 0.0 0.00 0.00 0.00 28 1006.1
20260510150036 61 176 4.0 0.0 0.00 0.00 0.00 29 1006.1
20260510145528 62 162 5.0 0.0 0.00 0.00 0.00 27 1006.1
20260510145029 62 162 5.0 0.0 0.00 0.00 0.00 26 1006.1
20260510144545 63 59 6.0 0.0 0.00 0.00 0.00 26 1006.4
20260510144032 63 138 5.0 0.0 0.00 0.00 0.00 24 1006.4
20260510143553 63 76 4.0 0.0 0.00 0.00 0.00 27 1006.4
20260510143039 63 138 4.0 0.0 0.00 0.00 0.00 24 1006.4
20260510142524 63 145 4.0 0.0 0.00 0.00 0.00 26 1006.6
20260510142029 63 156 5.0 0.0 0.00 0.00 0.00 27 1006.6
20260510141526 63 104 4.0 0.0 0.00 0.00 0.00 27 1006.8
20260510141022 63 173 3.0 0.0 0.00 0.00 0.00 28 1006.8
20260510140521 63 134 3.0 0.0 0.00 0.00 0.00 26 1006.8
20260510140023 63 166 5.0 0.0 0.00 0.00 0.00 29 1007.1
20260510135529 63 97 6.0 0.0 0.00 0.00 0.00 27 1007.1
20260510135047 63 141 6.0 0.0 0.00 0.00 0.00 24 1007.1
20260510134549 64 152 4.0 0.0 0.00 0.00 0.00 25 1007.3
20260510134042 64 183 5.0 0.0 0.00 0.00 0.00 24 1007.3
20260510133531 64 134 6.0 0.0 0.00 0.00 0.00 25 1007.3
20260510133027 64 156 6.0 0.0 0.00 0.00 0.00 25 1007.4
20260510132545 65 124 5.0 0.0 0.00 0.00 0.00 25 1007.4
20260510132024 65 138 4.0 0.0 0.00 0.00 0.00 26 1007.4
20260510131530 65 130 3.0 0.0 0.00 0.00 0.00 22 1007.7
20260510131022 65 178 4.0 0.0 0.00 0.00 0.00 22 1007.7
20260510130529 65 223 5.0 0.0 0.00 0.00 0.00 27 1007.7
20260510130057 65 161 5.0 0.0 0.00 0.00 0.00 24 1007.7
20260510125542 65 168 3.0 0.0 0.00 0.00 0.00 26 1008.1
20260510125033 65 182 3.0 0.0 0.00 0.00 0.00 26 1008.1
20260510124528 64 137 5.0 0.0 0.00 0.00 0.00 25 1008.2
20260510124034 65 161 4.0 0.0 0.00 0.00 0.00 22 1008.2
20260510123532 65 138 3.0 0.0 0.00 0.00 0.00 23 1008.2
20260510123043 65 216 3.0 0.0 0.00 0.00 0.00 23 1008.4
20260510122602 64 158 4.0 0.0 0.00 0.00 0.00 27 1008.4
20260510122027 64 122 5.0 0.0 0.00 0.00 0.00 27 1008.4
20260510121531 63 176 5.0 0.0 0.00 0.00 0.00 28 1008.7
20260510121057 63 121 4.0 0.0 0.00 0.00 0.00 23 1008.7
20260510120524 64 163 6.0 0.0 0.00 0.00 0.00 24 1008.7
20260510120031 64 144 6.0 0.0 0.00 0.00 0.00 23 1008.7
20260510115537 64 124 6.0 0.0 0.00 0.00 0.00 23 1008.7
20260510115046 64 162 6.0 0.0 0.00 0.00 0.00 24 1008.7
20260510114527 64 156 6.0 0.0 0.00 0.00 0.00 23 1009.2
20260510114036 64 154 5.0 0.0 0.00 0.00 0.00 24 1009.2
20260510113523 64 141 4.0 0.0 0.00 0.00 0.00 22 1009.2
20260510113021 64 178 4.0 0.0 0.00 0.00 0.00 24 1009.3
20260510112528 64 155 4.0 0.0 0.00 0.00 0.00 22 1009.3
20260510112030 64 125 3.0 0.0 0.00 0.00 0.00 25 1009.3
20260510111531 64 138 4.0 0.0 0.00 0.00 0.00 23 1009.4
20260510111048 63 168 5.0 0.0 0.00 0.00 0.00 24 1009.4
20260510110528 63 176 5.0 0.0 0.00 0.00 0.00 26 1009.4
20260510110031 63 139 6.0 0.0 0.00 0.00 0.00 23 1009.7
20260510105546 64 165 5.0 0.0 0.00 0.00 0.00 23 1009.7
20260510105029 64 165 5.0 0.0 0.00 0.00 0.00 24 1009.7
20260510104541 63 141 5.0 0.0 0.00 0.00 0.00 26 1009.7
20260510104023 63 145 5.0 0.0 0.00 0.00 0.00 24 1009.9
20260510103559 63 132 4.0 0.0 0.00 0.00 0.00 24 1009.9
20260510103028 63 169 2.0 0.0 0.00 0.00 0.00 25 1010.2
20260510102533 63 144 3.0 0.0 0.00 0.00 0.00 27 1010.2
20260510102021 63 175 5.0 0.0 0.00 0.00 0.00 24 1010.2
20260510101520 62 175 5.0 0.0 0.00 0.00 0.00 30 1010.3
20260510101033 62 170 5.0 0.0 0.00 0.00 0.00 27 1010.3
20260510100538 61 135 5.0 0.0 0.00 0.00 0.00 26 1010.3
20260510100049 61 138 4.0 0.0 0.00 0.00 0.00 27 1010.3
20260510095537 61 151 4.0 0.0 0.00 0.00 0.00 26 1010.7
20260510095025 61 186 5.0 0.0 0.00 0.00 0.00 26 1010.7
20260510094546 61 151 4.0 0.0 0.00 0.00 0.00 25 1010.8
20260510094038 61 168 4.0 0.0 0.00 0.00 0.00 27 1010.8
20260510093530 61 128 5.0 0.0 0.00 0.00 0.00 27 1010.8
20260510093035 60 146 5.0 0.0 0.00 0.00 0.00 31 1010.9
20260510092545 60 132 5.0 0.0 0.00 0.00 0.00 28 1010.9
20260510092055 61 132 5.0 0.0 0.00 0.00 0.00 25 1010.9
20260510090032 59 193 5.0 0.0 0.00 0.00 0.00 26 1011.4
20260510085547 59 132 6.0 0.0 0.00 0.00 0.00 30 1011.4
20260510085041 59 165 6.0 0.0 0.00 0.00 0.00 31 1011.4
20260510084123 59 134 5.0 0.0 0.00 0.00 0.00 30 1011.5
20260510082534 59 162 7.0 0.0 0.00 0.00 0.00 31 1011.8
20260510082031 59 159 7.0 0.0 0.00 0.00 0.00 34 1011.8
20260510081538 59 169 5.0 0.0 0.00 0.00 0.00 32 1011.8
20260510081034 59 206 4.0 0.0 0.00 0.00 0.00 36 1012.0
20260510080021 58 180 6.0 0.0 0.00 0.00 0.00 36 1012.2
20260510075550 58 146 6.0 0.0 0.00 0.00 0.00 38 1012.2
20260510075120 58 149 8.0 0.0 0.00 0.00 0.00 37 1012.2
20260510075035 58 149 8.0 0.0 0.00 0.00 0.00 37 1012.2
20260510074531 58 162 7.0 0.0 0.00 0.00 0.00 34 1012.3
20260510074021 58 122 5.0 0.0 0.00 0.00 0.00 37 1012.3
20260510073538 58 149 5.0 0.0 0.00 0.00 0.00 39 1012.3
20260510073039 57 159 5.0 0.0 0.00 0.00 0.00 36 1012.3
20260510072536 57 135 5.0 0.0 0.00 0.00 0.00 36 1012.5
20260510072022 57 154 6.0 0.0 0.00 0.00 0.00 38 1012.5
20260510071553 56 113 6.0 0.0 0.00 0.00 0.00 37 1012.8
20260510070537 57 186 4.0 0.0 0.00 0.00 0.00 35 1012.9
20260510070023 57 128 2.0 0.0 0.00 0.00 0.00 36 1013.0
20260510065520 56 173 3.0 0.0 0.00 0.00 0.00 39 1012.9
20260510065055 56 138 3.0 0.0 0.00 0.00 0.00 32 1012.9
20260510064523 56 134 2.0 0.0 0.00 0.00 0.00 39 1013.3
20260510064034 55 122 2.0 0.0 0.00 0.00 0.00 39 1013.2
20260510063537 54 121 3.0 0.0 0.00 0.00 0.00 43 1013.2
20260510063023 54 124 4.0 0.0 0.00 0.00 0.00 39 1013.4
20260510062532 53 137 3.0 0.0 0.00 0.00 0.00 41 1013.4
20260510062137 53 138 4.0 0.0 0.00 0.00 0.00 40 1013.4
20260510061530 52 165 5.0 0.0 0.00 0.00 0.00 43 1013.6
20260510061031 52 130 4.0 0.0 0.00 0.00 0.00 42 1013.6
20260510060546 52 138 3.0 0.0 0.00 0.00 0.00 43 1013.6
20260510060030 52 175 3.0 0.0 0.00 0.00 0.00 46 1013.8
20260510055543 51 135 2.0 0.0 0.00 0.00 0.00 47 1013.8
20260510055023 50 138 2.0 0.0 0.00 0.00 0.00 45 1013.8
20260510054610 50 131 2.0 0.0 0.00 0.00 0.00 47 1013.8
20260510054028 49 135 3.0 0.0 0.00 0.00 0.00 46 1013.9
20260510053534 49 137 3.0 0.0 0.00 0.00 0.00 46 1013.9
20260510053034 49 152 3.0 0.0 0.00 0.00 0.00 48 1013.9
20260510052532 49 127 3.0 0.0 0.00 0.00 0.00 47 1014.1
20260510052037 48 138 3.0 0.0 0.00 0.00 0.00 47 1014.0
20260510051551 48 128 2.0 0.0 0.00 0.00 0.00 49 1014.3
20260510051033 47 138 2.0 0.0 0.00 0.00 0.00 51 1014.3
20260510050538 46 138 3.0 0.0 0.00 0.00 0.00 50 1014.3
20260510050059 45 125 3.0 0.0 0.00 0.00 0.00 54 1014.3
20260510045522 44 161 4.0 0.0 0.00 0.00 0.00 51 1014.4
20260510045027 44 134 4.0 0.0 0.00 0.00 0.00 50 1014.4
20260510044547 43 139 3.0 0.0 0.00 0.00 0.00 52 1014.4
20260510044030 43 128 3.0 0.0 0.00 0.00 0.00 52 1014.5
20260510043535 42 131 3.0 0.0 0.00 0.00 0.00 53 1014.5
20260510043037 42 131 2.0 0.0 0.00 0.00 0.00 53 1014.5
20260510042552 42 121 2.0 0.0 0.00 0.00 0.00 54 1014.7
20260510042035 42 122 2.0 0.0 0.00 0.00 0.00 56 1014.7
20260510041529 41 122 2.0 0.0 0.00 0.00 0.00 56 1014.9
20260510041031 41 121 3.0 0.0 0.00 0.00 0.00 57 1014.9
20260510040520 41 120 3.0 0.0 0.00 0.00 0.00 58 1014.9
20260510040031 40 134 3.0 0.0 0.00 0.00 0.00 60 1015.0
20260510035537 40 134 2.0 0.0 0.00 0.00 0.00 60 1015.0
20260510035025 39 137 2.0 0.0 0.00 0.00 0.00 62 1015.0
20260510034541 39 134 2.0 0.0 0.00 0.00 0.00 62 1015.0
20260510034024 38 138 1.0 0.0 0.00 0.00 0.00 64 1015.4
20260510033532 38 138 1.0 0.0 0.00 0.00 0.00 64 1015.4
20260510033021 38 138 2.0 0.0 0.00 0.00 0.00 64 1015.5
20260510032525 38 139 2.0 0.0 0.00 0.00 0.00 65 1015.5
20260510032043 38 155 2.0 0.0 0.00 0.00 0.00 66 1015.5
20260510031530 38 163 1.0 0.0 0.00 0.00 0.00 66 1015.9
20260510031027 38 163 1.0 0.0 0.00 0.00 0.00 66 1015.9
20260510030534 38 163 1.0 0.0 0.00 0.00 0.00 67 1015.9
20260510030025 37 163 1.0 0.0 0.00 0.00 0.00 67 1016.0
20260510025532 37 163 1.0 0.0 0.00 0.00 0.00 66 1016.0
20260510025038 37 163 1.0 0.0 0.00 0.00 0.00 67 1016.0
20260510024531 37 163 1.0 0.0 0.00 0.00 0.00 67 1016.1
20260510024039 37 194 1.0 0.0 0.00 0.00 0.00 67 1016.1
20260510023527 37 194 1.0 0.0 0.00 0.00 0.00 67 1016.1
20260510023027 37 194 2.0 0.0 0.00 0.00 0.00 67 1016.2
20260510022533 37 194 2.0 0.0 0.00 0.00 0.00 67 1016.2
20260510022044 37 196 1.0 0.0 0.00 0.00 0.00 66 1016.2
20260510021530 37 196 1.0 0.0 0.00 0.00 0.00 66 1016.5
20260510021035 38 196 2.0 0.0 0.00 0.00 0.00 65 1016.5
20260510020552 38 196 2.0 0.0 0.00 0.00 0.00 64 1016.5
20260510020100 38 196 1.0 0.0 0.00 0.00 0.00 64 1016.5
20260510015533 38 197 1.0 0.0 0.00 0.00 0.00 64 1016.6
20260510015022 38 197 1.0 0.0 0.00 0.00 0.00 64 1016.6
20260510014536 38 197 1.0 0.0 0.00 0.00 0.00 64 1016.6
20260510014039 38 197 1.0 0.0 0.00 0.00 0.00 64 1016.6
20260510013527 39 197 1.0 0.0 0.00 0.00 0.00 63 1016.6
20260510013035 39 197 1.0 0.0 0.00 0.00 0.00 63 1016.6
20260510012521 39 197 1.0 0.0 0.00 0.00 0.00 62 1016.8
20260510012036 39 197 1.0 0.0 0.00 0.00 0.00 61 1016.8
20260510011521 39 197 1.0 0.0 0.00 0.00 0.00 61 1017.0
20260510011028 39 197 1.0 0.0 0.00 0.00 0.00 61 1017.0
20260510010523 40 199 0.0 0.0 0.00 0.00 0.00 62 1017.0
20260510010026 40 199 0.0 0.0 0.00 0.00 0.00 62 1017.0
20260510005539 40 199 0.0 0.0 0.00 0.00 0.00 63 1017.0
20260510005026 40 199 0.0 0.0 0.00 0.00 0.00 63 1017.0
20260510004542 40 199 0.0 0.0 0.00 0.00 0.00 63 1017.0
20260510004027 40 199 0.0 0.0 0.00 0.00 0.00 63 1017.0
20260510003534 40 199 0.0 0.0 0.00 0.00 0.00 63 1017.0
20260510003020 40 199 1.0 0.0 0.00 0.00 0.00 63 1017.1
20260510002533 40 199 1.0 0.0 0.00 0.00 0.00 63 1017.1
20260510002034 40 199 1.0 0.0 0.00 0.00 0.00 63 1017.1
20260510001526 40 199 1.0 0.0 0.00 0.00 0.00 62 1017.1
20260510001047 40 199 1.0 0.0 0.00 0.00 0.00 61 1017.1
20260510000532 40 199 1.0 0.0 0.00 0.00 0.00 62 1017.1
20260510000026 40 199 2.0 0.0 0.00 0.00 0.00 63 1017.2
20260509235531 40 199 1.0 0.0 0.00 0.00 0.00 64 1017.2
20260509235020 40 199 2.0 0.0 0.00 0.00 0.00 63 1017.2
20260509234526 40 199 2.0 0.0 0.00 0.00 0.00 63 1017.5
20260509234031 40 199 2.0 0.0 0.00 0.00 0.00 63 1017.5
20260509233538 40 199 1.0 0.0 0.00 0.00 0.00 63 1017.5
20260509233027 40 199 1.0 0.0 0.00 0.00 0.00 63 1017.6
20260509232542 40 199 1.0 0.0 0.00 0.00 0.00 62 1017.6
20260509232049 40 199 1.0 0.0 0.00 0.00 0.00 61 1017.6
20260509231523 40 199 1.0 0.0 0.00 0.00 0.00 61 1017.7
20260509231031 40 199 2.0 0.0 0.00 0.00 0.00 60 1017.7
20260509230547 40 199 2.0 0.0 0.00 0.00 0.00 58 1017.7
20260509230031 40 199 2.0 0.0 0.00 0.00 0.00 58 1017.9
20260509225534 41 199 2.0 0.0 0.00 0.00 0.00 57 1017.9
20260509225048 41 199 2.0 0.0 0.00 0.00 0.00 57 1017.9
20260509224530 41 199 2.0 0.0 0.00 0.00 0.00 56 1018.1
20260509224047 41 199 2.0 0.0 0.00 0.00 0.00 56 1018.1
20260509223529 41 199 2.0 0.0 0.00 0.00 0.00 57 1018.1
20260509223035 41 199 2.0 0.0 0.00 0.00 0.00 57 1018.1
20260509222552 41 200 3.0 0.0 0.00 0.00 0.00 58 1018.2
20260509222036 40 200 3.0 0.0 0.00 0.00 0.00 59 1018.2
20260509221555 40 200 3.0 0.0 0.00 0.00 0.00 62 1018.2
20260509221035 39 203 2.0 0.0 0.00 0.00 0.00 64 1018.4
20260509220546 38 203 2.0 0.0 0.00 0.00 0.00 66 1018.4
20260509220056 38 203 1.0 0.0 0.00 0.00 0.00 66 1018.4
20260509215521 38 203 0.0 0.0 0.00 0.00 0.00 66 1018.5